ISR513 LLBG-LGRP

Flight info

Callsign ISR513
Flight time N/A
Altitude 36000
Route SUVAS N128 OTHON/N0380F240 N128 FOXLI
Aircraft A320/M-SDE2FGIJ1LORVWY/SB1

Departure

Time 2026-05-01 11:23
Airport Ben Gurion International Airport (LLBG)

Arrival

Time N/A
Airport Rhodes International Airport "Diagoras" (LGRP)
Time Latitude Longitude Altitude Speed Heading
2026-05-01 10:31 32.00450 34.87430 120 ft 0 kts 247°
2026-05-01 10:48 32.00450 34.87431 120 ft 0 kts 247°
2026-05-01 11:10 32.00459 34.87456 120 ft 4 kts 253°
2026-05-01 11:10 32.00463 34.87481 120 ft 2 kts 268°
2026-05-01 11:10 32.00466 34.87511 116 ft 4 kts 244°
2026-05-01 11:11 32.00477 34.87532 120 ft 4 kts 235°
2026-05-01 11:11 32.00493 34.87559 120 ft 4 kts 235°
2026-05-01 11:11 32.00508 34.87585 120 ft 4 kts 235°
2026-05-01 11:11 32.00524 34.87611 115 ft 4 kts 236°
2026-05-01 11:12 32.00537 34.87637 120 ft 4 kts 255°
2026-05-01 11:12 32.00536 34.87665 120 ft 4 kts 307°
2026-05-01 11:12 32.00516 34.87685 120 ft 4 kts 334°
2026-05-01 11:12 32.00493 34.87696 117 ft 2 kts 347°
2026-05-01 11:13 32.00492 34.87696 120 ft 0 kts 347°
2026-05-01 11:17 32.00497 34.87695 120 ft 3 kts 347°
2026-05-01 11:17 32.00537 34.87684 120 ft 7 kts 348°
2026-05-01 11:17 32.00601 34.87709 120 ft 15 kts 30°
2026-05-01 11:18 32.00618 34.87801 116 ft 14 kts 118°
2026-05-01 11:18 32.00588 34.87907 119 ft 14 kts 67°
2026-05-01 11:18 32.00678 34.87975 118 ft 17 kts 33°
2026-05-01 11:18 32.00778 34.88056 120 ft 19 kts 32°
2026-05-01 11:19 32.00908 34.88149 118 ft 24 kts 30°
2026-05-01 11:19 32.01053 34.88256 118 ft 25 kts 31°
2026-05-01 11:19 32.01206 34.88365 118 ft 26 kts 32°
2026-05-01 11:19 32.01343 34.88500 117 ft 25 kts 47°
2026-05-01 11:20 32.01446 34.88673 117 ft 27 kts 63°
2026-05-01 11:20 32.01500 34.88875 120 ft 27 kts 79°
2026-05-01 11:20 32.01532 34.89084 117 ft 22 kts 79°
2026-05-01 11:20 32.01562 34.89271 118 ft 24 kts 79°
2026-05-01 11:21 32.01592 34.89463 117 ft 25 kts 79°
2026-05-01 11:21 32.01619 34.89639 117 ft 18 kts 76°
2026-05-01 11:21 32.01721 34.89731 115 ft 20 kts 28°
2026-05-01 11:21 32.01837 34.89730 115 ft 19 kts 286°
2026-05-01 11:22 32.01833 34.89651 118 ft 3 kts 261°
2026-05-01 11:22 32.01814 34.89531 115 ft 39 kts 260°
2026-05-01 11:22 32.01724 34.88946 121 ft 103 kts 260°
2026-05-01 11:22 32.01567 34.87915 119 ft 151 kts 260°
2026-05-01 11:23 32.01362 34.86565 307 ft 175 kts 261°
2026-05-01 11:23 32.01122 34.85170 934 ft 174 kts 259°
2026-05-01 11:23 32.00840 34.83790 1678 ft 172 kts 259°
2026-05-01 11:23 32.00544 34.82357 2224 ft 191 kts 257°
2026-05-01 11:24 32.00210 34.80743 2557 ft 215 kts 258°
2026-05-01 11:24 31.99835 34.78931 3010 ft 240 kts 257°
2026-05-01 11:24 31.99276 34.74822 4391 ft 264 kts 277°
2026-05-01 11:25 31.99794 34.72729 5318 ft 269 kts 289°
2026-05-01 11:25 32.00880 34.69260 6755 ft 275 kts 289°
2026-05-01 11:25 32.01139 34.68437 7071 ft 277 kts 289°
2026-05-01 11:26 32.01809 34.66289 7787 ft 282 kts 289°
2026-05-01 11:26 32.02743 34.61815 8010 ft 282 kts 272°
2026-05-01 11:26 32.02866 34.59514 8013 ft 282 kts 272°
2026-05-01 11:27 32.02988 34.57203 8014 ft 282 kts 272°
2026-05-01 11:27 32.03112 34.54894 8015 ft 282 kts 273°
2026-05-01 11:27 32.03240 34.52585 8016 ft 282 kts 273°
2026-05-01 11:27 32.03366 34.50264 8283 ft 287 kts 273°
2026-05-01 11:28 32.03683 34.47948 9150 ft 289 kts 286°
2026-05-01 11:28 32.04291 34.45683 9954 ft 291 kts 286°
2026-05-01 11:28 32.04924 34.43374 10442 ft 306 kts 287°
2026-05-01 11:29 32.06310 34.38334 11341 ft 332 kts 286°
2026-05-01 11:29 32.07025 34.35737 12065 ft 334 kts 286°
2026-05-01 11:29 32.08463 34.30494 13493 ft 338 kts 286°
2026-05-01 11:30 32.09190 34.27847 14189 ft 341 kts 286°
2026-05-01 11:30 32.09916 34.25187 14869 ft 341 kts 285°
2026-05-01 11:30 32.10642 34.22512 15525 ft 343 kts 285°
2026-05-01 11:30 32.11370 34.19823 16161 ft 345 kts 285°
2026-05-01 11:31 32.12103 34.17117 16772 ft 348 kts 285°
2026-05-01 11:31 32.12843 34.14396 17382 ft 349 kts 285°
2026-05-01 11:31 32.13587 34.11658 17985 ft 351 kts 285°
2026-05-01 11:31 32.14323 34.08940 18581 ft 354 kts 285°
2026-05-01 11:32 32.15072 34.06170 19196 ft 356 kts 285°
2026-05-01 11:32 32.15709 34.03354 19790 ft 356 kts 277°
2026-05-01 11:32 32.15979 34.00451 20387 ft 356 kts 272°
2026-05-01 11:32 32.16357 33.97552 20945 ft 362 kts 285°
2026-05-01 11:33 32.17558 33.94912 21459 ft 373 kts 305°
2026-05-01 11:33 32.19524 33.92853 21974 ft 386 kts 322°
2026-05-01 11:33 32.21848 33.91234 22472 ft 390 kts 325°
2026-05-01 11:33 32.22298 33.90931 22576 ft 390 kts 325°